Regional Weather Roundup
Issued by NWS

Home | Current Version | Previous Version | Graphics & Text | Print | Product List | Glossary On
Versions: 1 2 3 4 5 6 7 8 9 10 11 12 13 14 15 16 17 18 19 20 21 22 23 24 25 26 27 28 29 30 31 32 33 34 35 36 37 38 39 40 41 42 43 44 45 46 47 48 49 50
000
ASUS43 KLSX 290407
RWRMO

WEATHER SUMMARY FOR MISSOURI
NATIONAL WEATHER SERVICE SPRINGFIELD MO
1100 PM CDT TUE JUL 28 2015

NOTE: "FAIR" INDICATES FEW OR NO CLOUDS BELOW 12,000 FEET WITH NO
       SIGNIFICANT WEATHER AND/OR OBSTRUCTIONS TO VISIBILITY.
       CURRENT SKY AND/OR WEATHER CONDITIONS ARE NOT AVAILABLE FOR
       CHILLICOTHE AND FARMINGTON.

MOZ001>031-035>038-043-044-053-054-290500-
...NORTHERN AND WESTERN MISSOURI...

CITY           SKY/WX    TMP DP  RH WIND       PRES   REMARKS
KANSAS CTY INT PTCLDY    83  72  69 S13       29.91S
KANSAS C DTWN  CLEAR     87  72  60 S12       29.91R HX  93
LEE`S SUMMIT   CLEAR     84  72  67 S8        29.95R
ST JOSEPH      CLEAR     82  75  79 W5        29.90R
CHILLICOTHE      N/A     84  76  76 SE3       29.94R HX  93
KIRKSVILLE     PTCLDY    80  76  87 N16G26    30.00R

$$
MOZ066>068-077>081-088>096-101>105-290500-
...SOUTHWEST MISSOURI...

CITY           SKY/WX    TMP DP  RH WIND       PRES   REMARKS
SPRINGFIELD    CLEAR     79  74  84 S3        30.00R
JOPLIN         CLEAR     81  75  82 S6        29.97R

$$
MOZ032>034-039>042-045>050-055>058-069>072-290500-
...CENTRAL MISSOURI...

CITY           SKY/WX    TMP DP  RH WIND       PRES   REMARKS
COLUMBIA       CLEAR     82  77  84 SW3       29.97R HX  90
JEFFERSON CITY CLEAR     83  76  79 CALM      29.95R HX  91
ROLLA          CLEAR     80  74  81 S8        29.98S
SEDALIA        CLEAR     81  75  82 S6        29.98R
WARRENSBURG    CLEAR     81  72  74 S5        29.95R
OSAGE BEACH    CLEAR     81  75  83 S5        29.98S

$$
MOZ051-052-059>065-290500-
...EAST CENTRAL MISSOURI...

CITY           SKY/WX    TMP DP  RH WIND       PRES   REMARKS
ST LOUIS INTL  PTCLDY    89  76  65 S3        29.96R HX 100
SPIRIT OF STL  CLEAR     84  81  90 NW3       29.95R HX  99
ST CHARLES     PTCLDY    83  77  82 E3        29.94R HX  92

$$
MOZ072>076-082>087-097>100-106>115-290500-
...SOUTH CENTRAL AND SOUTHEAST MISSOURI...

CITY           SKY/WX    TMP DP  RH WIND       PRES   REMARKS
CAPE GIRARDEAU CLOUDY    83  78  85 CALM      29.96R HX  93
FARMINGTON     PTCLDY    79  75  89 CALM      30.03S
POPLAR BLUFF   CLEAR     84  79  85 CALM      29.95F HX  96
WEST PLAINS    CLEAR     79  75  87 CALM      30.03R

$$


USA.gov is the U.S. government's official web portal to all federal, state and local government web resources and services.